Content
SEND FEEDBACK

Daily
Averages
Monthly
Summary
United States of America

WEED, CALIFORNIA


Home > North America > United States > California
Elevation: 3664 feet     Latitude: 41 25N     Longitude: 122 23W

WEATHER
 
SELECT A DAY
Number of Records: 231,425;   Date Range: 1/1/95 - 8/12/14
 
SHARE

PRINT THIS DATA

[ ← Previous Day ]
WEATHER ALMANAC - OCTOBER 1, 2013
[ Next Day → ]
[ °C ]   °F
Weather ElementAverageHighLow
Temperature49.3 °F60.1 °F (1:56 pm)42.1 °F (5:56 am)
Dewpoint35.1 °F36 °F (1:56 am)32 °F (4:56 pm)
Humidity60 %79 % (5:56 am)38 % (3:56 pm)
Barometer30.11 in30.16 in (10:56 pm)30.05 in (2:56 am)
Wind Speed4.7 mph9.2 mph (9:56 am)
Weather ElementAverage
Visibility10 mi
Wind DirectionNE (40.4 °)

Weather ElementTotal
Precipitation---
Heating Degree Days13.9 (Base 65)
Growing Degree Days1.1 (Base 50)
Averaged from 23 records on October 1, 2013
WEATHER CONDITIONS BREAKOUT
WIND DIRECTION BREAKOUT
WEATHER BY HOUR - OCTOBER 1, 2013
[ °C ]   °F
Local TimeTemperatureDewpointHumidityBarometerVisibilityWind DirectionWind SpeedGust SpeedPrecipitationEventsConditions
1:56 AM44.1 °F36.0 °F73 %30.06 in10.0 miVariable3.5 mphClear
2:56 AM44.1 °F36.0 °F73 %30.05 in10.0 miNNW (330°)3.5 mphScattered Clouds
3:56 AM43.0 °F36.0 °F76 %30.06 in10.0 miVariable3.5 mphClear
4:56 AM43.0 °F36.0 °F76 %30.06 in10.0 miCalmClear
5:56 AM42.1 °F36.0 °F79 %30.07 in10.0 miVariable3.5 mphClear
6:56 AM42.1 °F35.1 °F76 %30.10 in10.0 miCalmClear
7:56 AM44.1 °F36.0 °F73 %30.12 in10.0 miVariable3.5 mphClear
8:56 AM46.0 °F36.0 °F68 %30.13 in10.0 miWNW (290°)8.1 mphClear
9:56 AM51.1 °F36.0 °F56 %30.13 in10.0 miNW (310°)9.2 mphClear
10:56 AM53.1 °F36.0 °F52 %30.14 in10.0 miVariable5.8 mphClear
11:56 AM55.0 °F35.1 °F47 %30.13 in10.0 miVariable5.8 mphClear
12:56 PM57.9 °F35.1 °F42 %30.12 in10.0 miVariable5.8 mphClear
1:56 PM60.1 °F35.1 °F39 %30.11 in10.0 miVariable5.8 mphClear
2:56 PM59.0 °F34.0 °F39 %30.09 in10.0 miVariable6.9 mphClear
3:56 PM60.1 °F34.0 °F38 %30.09 in10.0 miVariable4.6 mphClear
4:56 PM57.0 °F32.0 °F39 %30.11 in10.0 miVariable6.9 mphClear
5:56 PM55.0 °F32.0 °F42 %30.11 in10.0 miVariable4.6 mphClear
6:56 PM50.0 °F33.1 °F52 %30.12 in10.0 miVariable3.5 mphClear
7:56 PM48.0 °F36.0 °F63 %30.14 in10.0 miVariable5.8 mphClear
8:56 PM46.9 °F35.1 °F63 %30.15 in10.0 miVariable5.8 mphClear
9:56 PM46.0 °F36.0 °F68 %30.15 in10.0 miVariable3.5 mphClear
10:56 PM44.1 °F36.0 °F73 %30.16 in10.0 miVariable4.6 mphClear
11:56 PM43.0 °F35.1 °F74 %30.15 in10.0 miVariable3.5 mphClear
Hourly data recorded from KMHS, located miles away from Weed, California







STORIES FROM OUR PARTNERS